    Orbital elements:
    2024 JU14                                                Earth MOID = 0.0181 AU
    Epoch 2024 Mar. 31.0 TT = JDT 2460400.5                 MPC                     
    M 355.46234              (2000.0)            P               Q                  
    n   0.28875130     Peri.  330.73223     -0.93215282     +0.28961734             
    a   2.2670099      Node   227.81189     -0.24800590     -0.94797315             
    e   0.5664935      Incl.   17.05291     -0.26378816     -0.13216926             
    P   3.41           H   25.67          G   0.15           U   7                  
    Residuals in seconds of arc
    240510 L51  0.5-  0.6-    240510 G00  0.7+  0.2+    240511 H36  0.1+  0.1+
    240510 L51  0.3-  0.2+    240510 Z41  0.3-  0.8+    240511 H36  0.2+  0.8-
    240510 L51  0.8-  0.1+    240510 958  0.7-  0.8+    240511 H36  0.2+  0.0
    240510 L51  1.1+  0.5-    240510 Z41  0.6-  0.4+    240511 I52  0.3-  0.1+
    240510 L51  0.3-  0.7-    240510 Z41  0.7-  0.2-    240511 I52  0.1-  0.0
    240510 L51  0.8-  0.7+    240510 958  0.7-  0.9+    240511 I52  0.1-  0.1+
    240510 I93  0.4-  0.0     240510 958  0.1+  0.3-    240511 033  0.2+  0.0
    240510 511  0.8-  0.5-    240510 104  0.8+  0.1-    240511 033  0.1+  0.1+
    240510 I93  0.7-  0.3-    240510 104  1.2+  0.2+    240511 033  0.5+  0.2+
    240510 511  0.9-  0.4-    240510 K83  0.4-  0.5-    240511 L01  0.2-  0.2-
    240510 511  0.7-  0.6-    240510 033  0.3-  0.3-    240511 L01  0.5-  0.1-
    240510 511  0.5-  0.4-    240510 033  0.3-  0.2-    240511 L01  0.2-  0.4-
    240510 511  0.9-  0.8-    240510 033  0.2-  0.0     240511 L01  0.1+  0.4-
    240510 I93  0.5-  0.2-    240510 K83  0.7-  1.1-    240511 L01  0.2+  0.0
    240510 I93  0.4-  0.2-    240511 K83  1.3-  1.0-    240511 K62  0.6+  0.2+
    240510 K19  0.3-  0.1+    240511 J57  1.0+  0.2+    240511 K62  0.1-  0.1-
    240510 M45  0.3-  0.1+    240511 J57  0.3+  0.1-    240511 K62  0.4+  0.8-
    240510 K19  0.9-  0.2-    240511 H21  0.0   0.0     240511 K62  0.1-  0.2+
    240510 M45  0.1-  0.2-    240511 H21  0.0   0.1+    240511 K62  0.3+  0.4+
    240510 M45  0.2+  0.2-    240511 H21  0.0   0.2+    240512 Y05  0.4+  0.2+
    240510 G00  0.5-  0.2+    240511 H21  0.1+  0.0     240512 Y05  0.2+  0.1+
    240510 G00  0.5-  0.6-    240511 H21  0.0   0.1-    240512 Y05  0.3+  0.6-
    
    Ephemeris:
    2024 JU14                a,e,i = 2.27, 0.57, 17                  q = 0.9828
    Date    TT    R. A. (2000) Decl.     Delta      r    Elong.  Phase     V
    2024 04 12    06 12 11.5 -28 07 17   0.2060  0.9840    79.0    89.2    25.3
    ...
    2024 04 27    06 59 49.0 -27 42 39   0.09894 0.9937    79.8    94.6    24.0
    ...
    2024 05 05    08 48 28.9 -22 11 20   0.04489 1.0142    96.0    81.5    21.8
    ...
    2024 05 11    13 10 27.0 +08 37 16   0.03359 1.0359   140.0    38.8    19.9
    2024 05 12    13 50 32.7 +13 23 48   0.03747 1.0400   142.1    36.6    20.1
    2024 05 13    14 23 19.4 +16 52 01   0.04245 1.0443   142.1    36.5    20.4
    ...
    2024 05 19    16 01 57.6 +24 13 54   0.08235 1.0722   135.8    41.1    22.0
    ...
    2024 05 27    16 41 58.6 +25 15 15   0.1431  1.1157   133.0    41.6    23.3
    ...
    2024 06 11    17 04 15.7 +23 23 29   0.2638  1.2119   133.4    37.5    24.7
    
    A. U. Tomatic                (C) Copyright 2024 MPC           M.P.E.C. 2024-J272
    


    Read MPEC 2024-J271 Read MPEC 2024-J273


    MPEC number:

    Enter an MPEC number in one of the following forms:

    • 1997-B01 (the full form)
    • J97B01 (the packed version of the full form)
    • B01 (the abbreviated form)